Погода в Красюковской

Россия / Ростовская область     47°31′36″N   40°05′18″E
темп.,
°C
ветер,
м/с
пор.,
м/с
влажн.,
%
обл.,
%
осадки,
мм/ч
давл.,
гПа
погр.,
м
24 сентября, пт
пт2400:00+12вюв2380100 0.7 1012178
03:00+11юв2392100 1.3 101261
06:00+11юв1194100 0.5 101225
09:00+14з22726 1.3 1012446
12:00+16зюз344929 0.1 10111650
15:00+16зюз564991 0.1 10101421
18:00+14зюз5951100 0.0 1011494
21:00+13юз4869100 0.1 1011784
25 сентября, сб
сб2500:00+12ююз4871100 0.4 1009660
03:00+12ю51184100 0.8 1008838
06:00+12юз688869 1.1 1007587
09:00+13зсз5769100 1.1 1008604
12:00+17зюз465081 0.0 10101686
15:00+17з5652100 1.3 10111562
18:00+14юз476720 1.1 1012165
21:00+14з376799 1.2 1014225
26 сентября, вс
вс2600:00+12зюз367798 0.0 1015125
03:00+12з4974100 0.0 1016365
06:00+11зюз4107685 0.0 1016297
09:00+13зюз5127292 0.0 1016748
12:00+15зюз7137433 0.3 1014726
15:00+19з9136387 0.6 10121474
18:00+17зсз61359100 0.6 1012474
21:00+13сз5116813 0.6 1014409
27 сентября, пн
пн2700:00+11зсз511705 0.0 1014332
03:00+11з5126689 0.0 1014350
06:00+10зсз4106758 0.0 1015396
09:00+12сз58615 0.0 1016788
12:00+14сз6755100 0.0 10171213
15:00+16ссз675134 0.0 10171583
18:00+13ссз356078 0.1 1018157
21:00+13с356782 0.1 1019178
28 сентября, вт
вт2800:00+11с36785 0.0 1020145
03:00+10ссв37835 0.0 1021167
06:00+9ссв37855 0.0 1022177
09:00+13св57595 0.0 1023595
12:00+17св55445 0.0 10231391
15:00+18св55411 0.0 10231642
18:00+15св695113 0.0 1024359
21:00+12св510615 0.0 1025297